Home   Weather   's-Hertogenbosch   Past weeks

Flag for Netherlands Past Weather in 's-Hertogenbosch, Netherlands — Yesterday and Last 2 Weeks

Now
52 °F

Sprinkles. Broken clouds.


Feels Like: 46 °F
Forecast: 41 / 51 °F
Wind: 17 mph from West

Location: Volkel

Current Time: Feb 22, 2017 at 5:08:10 pm

Latest Report: Feb 22, 2017 at 4:30 pm


Visibility: 4 mi

Pressure: 29.68 "Hg

Humidity: 88%

Dew Point: 48 °F

Location of 's-HertogenboschLocation

Past Weather in 's-Hertogenbosch — Graph

°F

's-Hertogenbosch Temperature Yesterday

Maximum temperature yesterday: 54 °F (at 12:25 pm)
Minimum temperature yesterday: 46 °F (at 5:55 am)
Average temperature yesterday: 50 °F

High & Low Weather Summary for the Past Weeks

 TemperatureHumidityPressure
High61 °F (Feb 15, 3:25 pm)100% (Feb 7, 3:03 pm)30.51 "Hg (Feb 7, 3:03 pm)
Low27 °F (Feb 9, 10:59 pm)50% (Feb 14, 2:25 pm)29.65 "Hg (Feb 22, 3:05 pm)
Average40 °F87%30.21 "Hg
* Reported Feb 7 3:03 pm — Feb 22 3:55 pm, 's-Hertogenbosch, Weather by CustomWeather, © 2017

Note: Actual official high and low records may vary slightly from our data, if they occured in-between our weather recording intervals... More about our weather records

Advertising

's-Hertogenbosch Weather History for the Previous 24 Hours

Scroll right to see more
 ConditionsComfort  
Time TempWeatherWind HumidityBarometerVisibility
3:55 pm
Wed, Feb 22
52 °FLight rain. Broken clouds.20 mph88%29.65 "Hg4 mi
3:32 pm52 °FLight rain. Partly sunny.22 mph88%29.65 "Hg3 mi
3:15 pm52 °FDrizzle. Mostly cloudy.21 mph88%29.68 "HgN/A
3:05 pm52 °FDrizzle. Partly sunny.23 mph88%29.65 "Hg6 mi
2:25 pm52 °FDrizzle. Broken clouds.20 mph88%29.68 "Hg4 mi
1:55 pm52 °FLight rain. Mostly cloudy.20 mph88%29.68 "Hg3 mi
1:38 pm52 °FLight rain. Cloudy.16 mph88%29.71 "Hg3 mi
1:29 pm52 °FDrizzle. Cloudy.18 mph88%29.71 "Hg4 mi
12:56 pm52 °FDrizzle. Mostly cloudy.21 mph88%29.71 "HgN/A
12:36 pm52 °FMostly cloudy.20 mph88%29.71 "HgN/A
11:55 am52 °FMostly cloudy.21 mph88%29.71 "HgN/A
11:25 am52 °FMore clouds than sun.18 mph88%29.71 "HgN/A
10:55 am52 °FMostly cloudy.17 mph88%29.71 "HgN/A
10:25 am52 °FMostly cloudy.20 mph88%29.71 "HgN/A
9:55 am52 °FLight rain. Cloudy.21 mph88%29.71 "HgN/A
9:25 am50 °FLow clouds.20 mph94%29.71 "HgN/A
8:55 am50 °FDrizzle. Mostly cloudy.20 mph94%29.71 "HgN/A
8:39 am50 °FDrizzle. Cloudy.21 mph94%29.71 "HgN/A
8:26 am50 °FDrizzle. Cloudy.18 mph94%29.71 "Hg4 mi
8:18 am50 °FLight rain. Mostly cloudy.18 mph94%29.71 "Hg3 mi
7:44 am50 °FDrizzle. Partly sunny.17 mph94%29.71 "Hg3 mi
7:25 am50 °FSprinkles. Partly cloudy.20 mph94%29.71 "Hg4 mi
6:55 am50 °FPartly cloudy.20 mph94%29.71 "Hg4 mi
6:29 am50 °FLight rain. Partly cloudy.20 mph94%29.71 "Hg3 mi
5:55 am50 °FDrizzle. Mostly cloudy.21 mph88%29.74 "Hg3 mi
5:43 am50 °FLight rain. Overcast.21 mph88%29.74 "Hg4 mi
5:25 am52 °FOvercast.21 mph82%29.74 "HgN/A
4:55 am52 °FOvercast.23 mph82%29.74 "HgN/A
4:28 am52 °FOvercast.23 mph82%29.74 "HgN/A
4:04 am52 °FOvercast.22 mph82%29.74 "HgN/A
3:25 am52 °FOvercast.23 mph82%29.77 "HgN/A
2:55 am52 °FMostly cloudy.24 mph88%29.77 "HgN/A
2:25 am52 °FMostly cloudy.21 mph88%29.77 "HgN/A
1:55 am52 °FMostly cloudy.18 mph88%29.80 "HgN/A
1:25 am52 °FMostly cloudy.20 mph88%29.80 "HgN/A
12:55 am52 °FMostly cloudy.20 mph88%29.80 "HgN/A
12:25 am50 °FFog.18 mph94%29.83 "Hg6 mi
12:11 am50 °FFog.20 mph94%29.83 "Hg5 mi
11:55 pm
Tue, Feb 21
50 °FFog.20 mph94%29.83 "Hg6 mi
11:32 pm50 °FFog.18 mph100%29.83 "Hg6 mi
11:25 pm50 °FFog.18 mph100%29.83 "Hg4 mi
11:00 pm50 °FFog.17 mph94%29.86 "Hg2 mi
10:33 pm50 °FDrizzle. Mostly cloudy.18 mph94%29.86 "Hg4 mi
10:00 pm50 °FFog.16 mph94%29.86 "Hg4 mi
9:55 pm50 °FFog.16 mph94%29.86 "Hg6 mi
9:25 pm50 °FFog.15 mph94%29.89 "Hg5 mi
8:55 pm50 °FFog.12 mph94%29.89 "Hg4 mi
8:43 pm50 °FFog.10 mph94%29.89 "Hg4 mi
8:36 pm50 °FFog.10 mph88%29.89 "Hg4 mi
8:09 pm48 °FMostly cloudy.10 mph94%29.92 "HgN/A
7:55 pm50 °FPassing clouds.8 mph82%29.92 "HgN/A
7:25 pm50 °FMostly cloudy.8 mph82%29.95 "HgN/A
7:18 pm50 °FMostly cloudy.8 mph82%29.95 "HgN/A
6:55 pm48 °FMostly cloudy.9 mph87%29.95 "HgN/A
6:25 pm50 °FMostly cloudy.10 mph76%29.95 "HgN/A
5:55 pm48 °FScattered clouds.6 mph76%29.95 "HgN/A
5:25 pm50 °FMore clouds than sun.7 mph71%29.95 "HgN/A
Weather by CustomWeather, © 2017

See weather overviewHow to use our weather pages